Tracking 25723 objects as of 27-Jun-2022
HD Live streaming from Space Station
objects crossing your sky now

DMSP 5D-2 F13 DEB

Track DMSP 5D-2 F13 DEB now!
10-day predictions


NORAD ID: 40472
Int'l Code: 1995-015BQ
Perigee: 550.3 km
Apogee: 693.8 km
Inclination: 98.7 °
Period: 97.0 minutes
Semi major axis: 6993 km
RCS: Unknown
Launch date: March 24, 1995
Source: United States (US)
Launch site: AIR FORCE WESTERN TEST RANGE (AFWTR)

Note: This is SATELLITE DEBRIS
aabbcc
Your satellite tracking list
Your tracking list is empty




NASA's NSSDC Master Catalog

Two Line Element Set (TLE):
1 40472U 95015BQ  22177.56069627  .00017095  00000-0  18471-2 0  9992
2 40472  98.7202  30.0057 0102625 315.5373  43.7635 14.84574534390606
Source of the keplerian elements: AFSPC